Terug naar catalogus

CZ-3C DEB

ActiefGTO
NORAD 39346·DEBRIS·🇨🇳 China

Gelanceerd Oct 31, 2010 vanaf Xichang Satellite Launch Center

Loading…

TLE

VerouderendSource: Space-Track

Epoch: Sep 14, 2026, 05:23 UTC

1 39346U 10057L   26257.22449683  .00000142  00000-0  48174-2 0  9991
2 39346  20.0424 138.3226 7198652  77.2767 348.2991  2.17977775102885

Volg CZ-3C DEB in realtime met AllMySat

Download on the App Store